Back to catalog

PRAETORIAN SDA_515

AliveMilitaryPO
NORAD 100073·PAYLOAD·🇺🇸 United States

Launched Jul 16, 2026 from Vandenberg Space Force Base

Loading…

Next Passes (next 24 hours)

TLE

FreshSource: Space-Track

Epoch: Sep 14, 2026, 10:55 UTC

1 A0073U 26163Q   26257.45529723  .00000183  00000-0  14787-3 0  9999
2 A0073  81.4788 255.4459 0016962  56.1400 304.1369 13.86018490  8264

Track PRAETORIAN SDA_515 in real time with AllMySat

Download on the App Store